Hourly Data Report for February 05, 2019

TORONTO INTL A
ONTARIO
Current Station Operator: NAVCAN

43°40'36.000" N
79°37'50.000" W
173.40 m
6158731
71624
YYZ

Download Data

Hourly Data (February 2019)
Hourly Data Report for February 5, 2019
TIME
LST
Temp Definition
°C
Dew Point Definition
°C
Rel Hum Definition
%
Precip. Amount Definition
mm

Wind Dir Definition
10's deg

Wind Spd Definition
km/h
Visibility Definition
km
Stn Press Definition
kPa
Hmdx Definition


Wind Chill Definition


Weather Definition


00:00 9.5 7.9 90   24 27 12.9 98.44     Drizzle
01:00 9.3 7.9 91   26 22 19.3 98.51     Drizzle
02:00 8.6 7.0 90   29 16 19.3 98.65     LegendNANA
03:00 7.6 5.8 88   29 28 24.1 98.78     LegendNANA
04:00 6.7 4.6 86   29 28 24.1 98.86     Cloudy
05:00 6.1 3.6 84   29 25 24.1 98.94     LegendNANA
06:00 4.8 2.0 82   29 31 24.1 99.09     LegendNANA
07:00 3.6 0.6 81   29 18 24.1 99.22     Cloudy
08:00 3.3 0.1 80   28 20 24.1 99.35     LegendNANA
09:00 1.3 -1.8 80   34 22 24.1 99.51     LegendNANA
10:00 1.1 -1.8 81   31 26 24.1 99.60     Cloudy
11:00 -0.4 -4.0 76   30 30 24.1 99.76   -7 LegendNANA
12:00 -0.1 -4.3 73   30 24 24.1 99.83   -6 LegendNANA
13:00 -0.4 -5.3 70   32 30 24.1 99.88   -7 Mostly Cloudy
14:00 -1.0 -6.3 68   34 23 24.1 99.94   -7 LegendNANA
15:00 -2.0 -6.8 70   34 17 24.1 100.02   -7 LegendNANA
16:00 -3.2 -7.7 71   1 22 24.1 100.09   -10 Mostly Cloudy
17:00 -4.0 -8.4 72   3 18 24.1 100.17   -10 LegendNANA
18:00 -4.7 -9.1 72   1 15 24.1 100.25   -10 LegendNANA
19:00 -5.0 -9.3 72   36 17 24.1 100.29   -11 Mostly Cloudy
20:00 -5.6 -9.9 72   1 16 24.1 100.29   -12 LegendNANA
21:00 -6.4 -10.5 73   1 19 24.1 100.28   -13 LegendNANA
22:00 -7.0 -11.1 73   36 20 24.1 100.28   -14 Mainly Clear
23:00 -6.9 -10.9 73   1 13 24.1 100.28   -12 LegendNANA

Notes on Data Quality.

Legend

  • E = Estimated
  • M = Missing
  • NA = Not Available*
  • [empty] = Indicates an unobserved value
Date modified: